Weather Service Report


754 
ASUS42 KFFC 312203
RWRGA 
WEATHER ROUNDUP FOR GEORGIA
NATIONAL WEATHER SERVICE PEACHTREE CITY GA
600 PM EDT MON AUG 31 2015

NOTE: "FAIR" INDICATES FEW OR NO CLOUDS BELOW 12,000 FEET WITH NO
SIGNIFICANT WEATHER AND/OR OBSTRUCTIONS TO VISIBILITY. 

* = USE WITH CAUTION. THE STATIONS MARKED WITH AN ASTERISK MAY NOT
REPORT WEATHER SUCH AS PRECIPITATION, FOG, OR THUNDER AND ARE NOT 
QUALITY CONTROLLED BY NWS.

THE REMARK "TC" DENOTES TEMPERATURE READING IN DEGREES CELSIUS.

GAZ001>058-312300-
NORTH GEORGIA
  
CITY           SKY/WX    TMP DP  RH WIND       PRES   REMARKS
ATLANTA        PTSUNNY   82  66  58 CALM      30.09S                  
ATHENS         CLOUDY    85  66  53 E3        30.07S                  
CHAMBLEE       PTSUNNY   81  67  62 VRB3      30.08F                  
PEACHTREE CITY PTSUNNY   81  69  67 MISG      30.09S                  
ROME           SUNNY     85  65  51 CALM      30.06F                  
WEST ATLANTA   CLOUDY    80  67  64 W3        30.08F                  
GAINESVILLE    CLOUDY    82  65  56 S5        30.10F                  
CARTERSVILLE   MOSUNNY   80  68  66 SE5       30.08S                  

  
CITY           SKY/WX    TMP DP  RH WIND       PRES   REMARKS
DALTON*        CLOUDY    81  68  65 CALM      30.07F                  
LAWRENCEVILLE* PTSUNNY   81  63  54 CALM      30.09F                  
MARIETTA       PTSUNNY   82  68  63 S3        30.09S                  
KENNESAW*      MOSUNNY   81  64  57 CALM      30.10S                  
BLAIRSVILLE*     N/A     83  20   9 CALM      30.11F                  
$$

GAZ059>098-102>109-312300-
CENTRAL GEORGIA
  
CITY           SKY/WX    TMP DP  RH WIND       PRES   REMARKS
AUGUSTA-BUSH   MOSUNNY   84  68  58 CALM      30.04F                  
AUGUSTA-DANIEL CLOUDY    96  68  39 W5        30.07S HX 101           
COLUMBUS       MOSUNNY   86  68  54 E6        30.04S                  
MACON          MOSUNNY   85  69  58 CALM      30.05F                  
ROBINS AFB     MOSUNNY   85  70  59 E3        30.05S HX  90           

  
CITY           SKY/WX    TMP DP  RH WIND       PRES   REMARKS
LAGRANGE*      CLOUDY    85  74  69 CALM      30.07S HX  93           
SYLVANIA*      CLOUDY    83  75  76 CALM      30.06S HX  91           
MILLEDGEVILLE* SUNNY     84  68  58 CALM      30.06F                  
$$

GAZ099>101-110>166-312300-
SOUTH GEORGIA
  
CITY           SKY/WX    TMP DP  RH WIND       PRES   REMARKS
SAVANNAH       PTSUNNY   84  71  65 CALM      30.05S                  
VALDOSTA       SUNNY     89  69  51 N8        30.03S HX  93           
ALMA           SUNNY     89  67  47 VRB5      30.04S HX  92           
ST SIMONS      SUNNY     84  75  74 E10       30.04S HX  92           
FT STEWART     MOSUNNY   87  72  61 N7        30.03R HX  94           
ALBANY         MOSUNNY   90  67  46 NW3       30.04F HX  93           
HUNTER AFB     SUNNY     86  76  71 NW3       30.02S HX  96           
MOODY AFB      SUNNY     89  67  48 N6        30.03S HX  91           
BRUNSWICK      PTSUNNY   82  75  78 E8        30.05R                  

  
CITY           SKY/WX    TMP DP  RH WIND       PRES   REMARKS
BAINBRIDGE*    SUNNY     91  68  46 N6        30.02S HX  95           
MOULTRIE*      MOSUNNY   90  68  48 NE6       30.04S HX  93           
VIDALIA*       SUNNY     82  70  65 E5        30.06S                  
WAYCROSS*      SUNNY     91  74  57 CALM      30.03S HX  99           
DOUGLAS*       PTSUNNY   88  68  51 E3        30.05S HX  91           
$$

Return to Home page


Western Regional Climate Center, wrcc@dri.edu